Find Starlink 36727

NORAD ID: 67875 Int'l Des: 2026-034 Owner: SPXS Country: US Constellation: starlink operational
LEOCIRCULAR

Current View

Loading 3D Globe...

About Starlink 36727

Description loading...

Upcoming Passes

Passes for default location (London). Set your location on the main map for personalized predictions.

Altitude History

Loading altitude history...

Two-Line Element Set

1 67875U 26034AB 26146.54532066 .00007344 00000-0 24815-3 0 9999
2 67875 53.1588 202.0415 0001124 91.1141 268.9989 15.31707149 15964
Epoch: May 26, 2026 • Age: 11 hours

Current Status

Altitude 489.7 km
Velocity 7.62 km/s
Sub-Earth Point -52.55°S, 142.28°W
Launch Date Feb 20, 2026
Age 0.2 years
Type internet

Technical Details

Classification Payload
Mass 575.00 kg
Dry Mass 530.00 kg
Total Mass 575.00 kg
Length 0.30 m
Diameter 4.10 m
Span 29.00 m
Shape Box + pan
Manufacturer SPXS
Bus Type Starlink V2MO
Phase Status In Orbit
Owner/State SPXS/US

Most Searched